Location: Zlin
(49.2330°N, 17.6670°E)
Time: 10:36:52
(UTC+01:00)

VELOX 1 - Visible Passes

Search period start: 04 March 2024 00:00
Search period end: 14 March 2024 00:00
Orbit: 608 x 622 km, 98.4° (Epoch: 03 March)

Date Brightness Start Highest point End Pass type
(mag) Time Alt. Az. Time Alt. Az. Time Alt. Az.
04 Mar ? 04:54:21 10° ENE 04:55:42 11° NE 04:57:04 10° NE visible
04 Mar ? 19:44:39 10° NNE 19:48:56 77° ESE 19:53:12 10° S visible
04 Mar ? 21:21:58 10° NNW 21:24:21 15° WNW 21:26:43 10° W visible
05 Mar ? 05:08:38 10° E 05:11:06 15° ENE 05:13:34 10° NNE visible
05 Mar ? 18:26:03 10° ENE 18:28:02 13° E 18:30:01 10° ESE visible
05 Mar ? 20:00:15 10° NNE 20:04:32 75° WNW 20:08:47 10° SSW visible
05 Mar ? 21:38:33 10° NW 21:39:43 11° NW 21:40:53 10° WNW visible
06 Mar ? 05:23:23 10° ESE 05:26:30 20° ENE 05:29:38 10° NNE visible
06 Mar ? 18:40:49 10° NE 18:43:46 18° E 18:46:43 10° SE visible
06 Mar ? 20:15:53 10° N 20:20:03 53° WNW 20:24:12 10° SSW visible
07 Mar ? 05:38:20 10° ESE 05:41:55 27° ENE 05:45:31 10° N visible
07 Mar ? 18:55:55 10° NE 18:59:28 25° E 19:02:59 10° SSE visible
07 Mar ? 20:31:34 10° N 20:35:32 38° WNW 20:39:29 10° SW visible
08 Mar ? 19:11:10 10° NNE 19:15:06 34° E 19:19:00 10° SSE visible
08 Mar ? 20:47:18 10° N 20:50:57 28° WNW 20:54:36 10° WSW visible
09 Mar ? 19:26:31 10° NNE 19:30:41 49° E 19:34:49 10° S visible
09 Mar ? 21:03:07 10° NNW 21:06:20 21° WNW 21:09:32 10° WSW visible
10 Mar ? 04:52:21 10° ENE 04:53:06 10° NE 04:53:51 10° NE visible
10 Mar ? 19:41:56 10° NNE 19:46:12 70° ESE 19:50:28 10° S visible
10 Mar ? 21:19:03 10° NNW 21:21:39 16° WNW 21:24:15 10° W visible
11 Mar ? 05:06:10 10° E 05:08:23 14° ENE 05:10:35 10° NNE visible
11 Mar ? 18:23:36 10° ENE 18:25:09 12° E 18:26:42 10° ESE visible
11 Mar ? 19:57:23 10° NNE 20:01:41 83° WNW 20:05:58 10° SSW visible
11 Mar ? 21:35:18 10° NNW 21:36:56 12° NW 21:38:33 10° WNW visible
12 Mar ? 05:20:43 10° ESE 05:23:40 18° ENE 05:26:37 10° NNE visible
12 Mar ? 18:38:03 10° NE 18:40:48 16° E 18:43:31 10° SE visible
12 Mar ? 20:12:54 10° N 20:17:07 59° WNW 20:21:19 10° SSW visible
13 Mar ? 18:52:58 10° NE 18:56:22 23° E 18:59:46 10° SSE visible
13 Mar ? 20:28:26 10° N 20:32:29 42° WNW 20:36:31 10° SW visible
